Location: *
(49.6619°S, 177.4603°W)
Time: 12:44:35
(UTC+00:00)

Cosmos 1933 - Pass Details

Date: 31 January 2023
Orbit: 541 x 555 km, 82.5° (Epoch: 28 March)

Event Time Altitude Azimuth Distance (km) Brightness Sun altitude
Exits shadow 09:34:46 25° 63° (ENE) 1,141 4.4 -15.3°
Maximum altitude 09:35:49 29° 90° (E) 1,049 4.4 -15.4°
Drops below altitude 10° 09:39:24 10° 150° (SSE) 1,875 6.3 -15.8°
Sets 09:41:48 0° 161° (SSE) 2,782 7.4 -16.0°
